Flag for U.S.A. Weather past 2 weeks in Yonkers, New York, U.S.A.

Now
71 °F

Broken clouds.


Feels Like: 76 °F
Forecast: 58 / 71 °F
Wind: No wind

Location: Teterboro Airport

Current Time: Sep 16, 2014 at 2:21:57 PM

Latest Report: Sep 16, 2014 at 1:51 PM


Visibility: 10 mi

Pressure: 29.96 "Hg

Humidity: 57%

Dew point: 55 °F

Location of YonkersLocation

Historic Weather in Yonkers — Graph

°F

Yonkers temperature yesterday

Maximum temperature yesterday: 73 °F (at 3:51 PM)
Minimum temperature yesterday: 50 °F (at 4:51 AM)
Average temperature yesterday: 62 °F

Past Weeks' High & Low Weather Summary

 TemperatureHumidityPressure
High94 °F (Sep 6, 2:51 PM)94% (Sep 13, 6:58 PM)30.31 "Hg (Sep 13, 6:58 PM)
Low50 °F (Sep 15, 4:51 AM)27% (Sep 3, 5:51 PM)29.78 "Hg (Sep 2, 10:51 PM)
Average72 °F62%30.07 "Hg
* Reported Sep 1 12:51 PM — Sep 16 12:51 PM, Yonkers, Weather by CustomWeather, © 2014

Note: Actual official high and low records may vary slightly from our data, if they occured in-between our weather recording intervals... More about our weather records

Advertising

Yonkers weather history for previous 24 hours

 ConditionsComfort  
Time TempWeatherWind HumidityBarometerVisibility
12:51 PM
Sep 16
67 °FSunny.No wind71%29.98 "Hg10 mi
11:51 AM64 °FFog.3 mph81%29.99 "Hg5 mi
10:51 AM60 °FLight rain. Fog.No wind86%30.00 "Hg3 mi
9:51 AM58 °FLight rain. Fog.6 mph90%30.02 "Hg4 mi
8:51 AM57 °FLight rain. Fog.6 mph90%30.02 "Hg3 mi
7:51 AM58 °FLight rain. More clouds than sun.5 mph84%30.00 "Hg5 mi
6:51 AM59 °FMostly cloudy.No wind81%29.98 "Hg10 mi
5:51 AM59 °FPassing clouds.3 mph78%29.98 "Hg10 mi
4:51 AM60 °FPassing clouds.No wind75%30.01 "Hg10 mi
3:51 AM59 °FClear.No wind78%30.03 "Hg10 mi
2:51 AM60 °FPassing clouds.No wind72%30.04 "Hg10 mi
1:51 AM60 °FClear.No wind72%30.05 "Hg10 mi
12:51 AM60 °FClear.No wind72%30.06 "Hg10 mi
11:51 PM
Sep 15
61 °FClear.No wind70%30.07 "Hg10 mi
10:51 PM62 °FClear.5 mph67%30.09 "Hg10 mi
9:51 PM63 °FClear.6 mph63%30.08 "Hg10 mi
8:51 PM64 °FClear.3 mph58%30.09 "Hg10 mi
7:51 PM65 °FSunny.6 mph54%30.10 "Hg10 mi
6:51 PM68 °FSunny.7 mph42%30.09 "Hg10 mi
5:51 PM71 °FSunny.6 mph38%30.09 "Hg10 mi
4:51 PM72 °FSunny.6 mph34%30.10 "Hg10 mi
3:51 PM73 °FSunny.5 mph33%30.11 "Hg10 mi
2:51 PM71 °FSunny.3 mph34%30.13 "Hg10 mi
Weather by CustomWeather, © 2014

See weather overviewHow to use our weather pages